Time,TemperatureF,DewpointF,PressureIn,WindDirection,WindDirectionDegrees,WindSpeedMPH,WindSpeedGustMPH,Humidity,HourlyPrecipIn,Conditions,Clouds,dailyrainin,SoftwareType,DateUTC
2013-05-07 00:00:00,56.0,0.0,29.89,SSW,204,9.0,12.0,55,-99.99,,,-99.99,,2013-05-07 07:00:00,
2013-05-07 00:08:00,56.0,0.0,29.89,SW,214,10.0,13.0,55,-99.99,,,-99.99,,2013-05-07 07:08:00,
2013-05-07 00:16:00,56.0,0.0,29.89,SSW,197,6.0,12.0,54,-99.99,,,-99.99,,2013-05-07 07:16:00,
2013-05-07 00:24:00,55.0,0.0,29.89,South,181,5.0,9.0,55,-99.99,,,-99.99,,2013-05-07 07:24:00,
2013-05-07 00:32:00,55.0,0.0,29.89,South,183,6.0,8.0,58,-99.99,,,-99.99,,2013-05-07 07:32:00,
2013-05-07 00:40:00,54.0,0.0,29.89,SW,223,8.0,9.0,54,-99.99,,,-99.99,,2013-05-07 07:40:00,
2013-05-07 00:48:00,55.0,0.0,29.89,South,190,7.0,9.0,58,-99.99,,,-99.99,,2013-05-07 07:48:00,
2013-05-07 00:56:00,54.0,0.0,29.89,SSW,200,7.0,12.0,59,-99.99,,,-99.99,,2013-05-07 07:56:00,
2013-05-07 01:04:00,54.0,0.0,29.89,SSW,196,8.0,12.0,57,-99.99,,,-99.99,,2013-05-07 08:04:00,
2013-05-07 01:12:00,54.0,0.0,29.88,SSW,206,10.0,13.0,55,-99.99,,,-99.99,,2013-05-07 08:12:00,
2013-05-07 01:20:00,55.0,0.0,29.89,SW,227,14.0,16.0,54,-99.99,,,-99.99,,2013-05-07 08:20:00,
2013-05-07 01:28:00,54.0,0.0,29.88,SSW,209,13.0,17.0,55,-99.99,,,-99.99,,2013-05-07 08:28:00,
2013-05-07 01:36:00,54.0,0.0,29.88,SSW,201,14.0,17.0,59,-99.99,,,-99.99,,2013-05-07 08:36:00,
2013-05-07 01:44:00,54.0,0.0,29.88,South,182,7.0,17.0,58,-99.99,,,-99.99,,2013-05-07 08:44:00,
2013-05-07 01:52:00,53.0,0.0,29.88,South,170,8.0,12.0,57,-99.99,,,-99.99,,2013-05-07 08:52:00,
2013-05-07 02:00:00,53.0,0.0,29.88,SSW,213,7.0,10.0,59,-99.99,,,-99.99,,2013-05-07 09:00:00,
2013-05-07 02:08:00,53.0,0.0,29.88,West,274,2.0,9.0,58,-99.99,,,-99.99,,2013-05-07 09:08:00,
2013-05-07 02:16:00,51.0,0.0,29.88,SW,232,0.0,5.0,61,-99.99,,,-99.99,,2013-05-07 09:16:00,
2013-05-07 02:24:00,51.0,0.0,29.88,East,83,3.0,5.0,62,-99.99,,,-99.99,,2013-05-07 09:24:00,
2013-05-07 02:32:00,52.0,0.0,29.87,SE,139,3.0,6.0,58,-99.99,,,-99.99,,2013-05-07 09:32:00,
2013-05-07 02:40:00,52.0,0.0,29.87,SSE,159,5.0,5.0,58,-99.99,,,-99.99,,2013-05-07 09:40:00,
2013-05-07 02:48:00,51.0,0.0,29.87,ESE,123,6.0,7.0,60,-99.99,,,-99.99,,2013-05-07 09:48:00,
2013-05-07 02:56:00,50.0,0.0,29.87,SSE,164,6.0,7.0,62,-99.99,,,-99.99,,2013-05-07 09:56:00,
2013-05-07 03:04:00,50.0,0.0,29.87,SSW,213,3.0,6.0,61,-99.99,,,-99.99,,2013-05-07 10:04:00,
2013-05-07 03:12:00,49.0,0.0,29.87,WSW,244,3.0,5.0,62,-99.99,,,-99.99,,2013-05-07 10:12:00,
2013-05-07 03:20:00,48.0,0.0,29.87,WSW,243,2.0,5.0,65,-99.99,,,-99.99,,2013-05-07 10:20:00,
2013-05-07 03:28:00,46.0,0.0,29.87,SW,226,6.0,7.0,65,-99.99,,,-99.99,,2013-05-07 10:28:00,
2013-05-07 03:36:00,46.0,0.0,29.88,WSW,248,8.0,8.0,65,-99.99,,,-99.99,,2013-05-07 10:36:00,
2013-05-07 03:44:00,47.0,0.0,29.88,West,263,7.0,9.0,64,-99.99,,,-99.99,,2013-05-07 10:44:00,
2013-05-07 03:52:00,46.0,0.0,29.88,WSW,258,6.0,9.0,66,-99.99,,,-99.99,,2013-05-07 10:52:00,
2013-05-07 04:00:00,45.0,0.0,29.88,West,280,6.0,8.0,68,-99.99,,,-99.99,,2013-05-07 11:00:00,
2013-05-07 04:08:00,45.0,0.0,29.88,WNW,289,6.0,8.0,67,-99.99,,,-99.99,,2013-05-07 11:08:00,
2013-05-07 04:16:00,16.0,0.0,29.88,North,7,2.0,7.0,68,-99.99,,,-99.99,,2013-05-07 11:16:00,
2013-05-07 04:24:00,44.0,0.0,29.88,NNW,348,3.0,7.0,68,-99.99,,,-99.99,,2013-05-07 11:24:00,
2013-05-07 04:32:00,44.0,0.0,29.88,ENE,57,0.0,5.0,71,-99.99,,,-99.99,,2013-05-07 11:32:00,
2013-05-07 04:40:00,16.0,0.0,29.88,North,351,0.0,2.0,70,-99.99,,,-99.99,,2013-05-07 11:40:00,
2013-05-07 04:48:00,15.0,0.0,29.88,NNW,343,1.0,2.0,69,-99.99,,,-99.99,,2013-05-07 11:48:00,
2013-05-07 04:56:00,15.0,0.0,29.89,SSW,210,2.0,2.0,69,-99.99,,,-99.99,,2013-05-07 11:56:00,
2013-05-07 05:04:00,14.0,0.0,29.89,WSW,255,2.0,3.0,67,-99.99,,,-99.99,,2013-05-07 12:04:00,
2013-05-07 05:12:00,43.0,0.0,29.89,West,278,2.0,3.0,70,-99.99,,,-99.99,,2013-05-07 12:12:00,
2013-05-07 05:20:00,43.0,0.0,29.89,SW,234,1.0,2.0,70,-99.99,,,-99.99,,2013-05-07 12:20:00,
2013-05-07 05:28:00,43.0,0.0,29.89,West,269,2.0,3.0,73,-99.99,,,-99.99,,2013-05-07 12:28:00,
2013-05-07 05:36:00,42.0,0.0,29.89,NNW,329,2.0,3.0,72,-99.99,,,-99.99,,2013-05-07 12:36:00,
2013-05-07 05:44:00,41.0,0.0,29.89,NW,307,5.0,5.0,73,-99.99,,,-99.99,,2013-05-07 12:44:00,
2013-05-07 05:52:00,41.0,0.0,29.89,NNW,335,6.0,7.0,73,-99.99,,,-99.99,,2013-05-07 12:52:00,
2013-05-07 06:00:00,41.0,0.0,29.90,NNE,12,5.0,7.0,73,-99.99,,,-99.99,,2013-05-07 13:00:00,
2013-05-07 06:08:00,41.0,0.0,29.90,NE,47,6.0,7.0,72,-99.99,,,-99.99,,2013-05-07 13:08:00,
2013-05-07 06:16:00,41.0,0.0,29.90,SE,128,3.0,6.0,74,-99.99,,,-99.99,,2013-05-07 13:16:00,
2013-05-07 06:24:00,42.0,0.0,29.90,ENE,75,3.0,5.0,73,-99.99,,,-99.99,,2013-05-07 13:24:00,
2013-05-07 06:32:00,44.0,0.0,29.91,SSE,154,3.0,6.0,67,-99.99,,,-99.99,,2013-05-07 13:32:00,
2013-05-07 06:40:00,45.0,0.0,29.91,WNW,286,1.0,3.0,69,-99.99,,,-99.99,,2013-05-07 13:40:00,
2013-05-07 06:48:00,45.0,0.0,29.91,West,273,2.0,2.0,66,-99.99,,,-99.99,,2013-05-07 13:48:00,
2013-05-07 06:56:00,45.0,0.0,29.91,WNW,302,3.0,6.0,66,-99.99,,,-99.99,,2013-05-07 13:56:00,
2013-05-07 07:04:00,47.0,0.0,29.92,NNW,346,2.0,5.0,63,-99.99,,,-99.99,,2013-05-07 14:04:00,
2013-05-07 07:12:00,47.0,0.0,29.92,NNW,341,2.0,3.0,64,-99.99,,,-99.99,,2013-05-07 14:12:00,
2013-05-07 07:20:00,51.0,0.0,29.92,NE,47,3.0,5.0,57,-99.99,,,-99.99,,2013-05-07 14:20:00,
2013-05-07 07:28:00,53.0,0.0,29.92,ENE,63,2.0,5.0,56,-99.99,,,-99.99,,2013-05-07 14:28:00,
2013-05-07 07:36:00,51.0,0.0,29.92,SE,133,2.0,3.0,59,-99.99,,,-99.99,,2013-05-07 14:36:00,
2013-05-07 07:44:00,52.0,0.0,29.92,SSE,156,5.0,6.0,58,-99.99,,,-99.99,,2013-05-07 14:44:00,
2013-05-07 07:52:00,52.0,0.0,29.92,SSW,197,3.0,7.0,57,-99.99,,,-99.99,,2013-05-07 14:52:00,
2013-05-07 08:00:00,52.0,0.0,29.92,SSE,154,3.0,7.0,56,-99.99,,,-99.99,,2013-05-07 15:00:00,
2013-05-07 08:08:00,53.0,0.0,29.92,South,188,1.0,5.0,54,-99.99,,,-99.99,,2013-05-07 15:08:00,
2013-05-07 08:16:00,55.0,0.0,29.93,SSW,207,1.0,5.0,52,-99.99,,,-99.99,,2013-05-07 15:16:00,
2013-05-07 08:24:00,32.0,0.0,29.93,SSE,152,2.0,3.0,49,-99.99,,,-99.99,,2013-05-07 15:24:00,
2013-05-07 08:32:00,34.0,0.0,29.93,SW,234,3.0,3.0,48,-99.99,,,-99.99,,2013-05-07 15:32:00,
2013-05-07 08:40:00,60.0,0.0,29.93,South,187,0.0,3.0,48,-99.99,,,-99.99,,2013-05-07 15:40:00,
2013-05-07 08:48:00,61.0,0.0,29.93,NE,45,1.0,3.0,45,-99.99,,,-99.99,,2013-05-07 15:48:00,
2013-05-07 08:56:00,60.0,0.0,29.93,SE,145,1.0,3.0,45,-99.99,,,-99.99,,2013-05-07 15:56:00,
2013-05-07 09:04:00,40.0,0.0,29.93,SSE,163,1.0,6.0,45,-99.99,,,-99.99,,2013-05-07 16:04:00,
2013-05-07 09:12:00,39.0,0.0,29.93,WSW,258,2.0,6.0,44,-99.99,,,-99.99,,2013-05-07 16:12:00,
2013-05-07 09:20:00,62.0,0.0,29.93,South,177,5.0,12.0,43,-99.99,,,-99.99,,2013-05-07 16:20:00,
2013-05-07 09:28:00,62.0,0.0,29.93,SSW,204,3.0,8.0,43,-99.99,,,-99.99,,2013-05-07 16:28:00,
2013-05-07 09:36:00,63.0,0.0,29.93,SSE,160,3.0,5.0,43,-99.99,,,-99.99,,2013-05-07 16:36:00,
2013-05-07 09:44:00,64.0,0.0,29.93,SSW,205,2.0,7.0,44,-99.99,,,-99.99,,2013-05-07 16:44:00,
2013-05-07 09:52:00,47.0,0.0,29.93,South,178,7.0,9.0,38,-99.99,,,-99.99,,2013-05-07 16:52:00,
2013-05-07 10:00:00,45.0,0.0,29.93,South,173,5.0,9.0,39,-99.99,,,-99.99,,2013-05-07 17:00:00,
2013-05-07 10:08:00,45.0,0.0,29.93,ESE,118,1.0,8.0,37,-99.99,,,-99.99,,2013-05-07 17:08:00,
2013-05-07 10:16:00,65.0,0.0,29.93,SSW,201,2.0,8.0,37,-99.99,,,-99.99,,2013-05-07 17:16:00,
2013-05-07 10:24:00,66.0,0.0,29.93,WSW,237,6.0,8.0,37,-99.99,,,-99.99,,2013-05-07 17:24:00,
2013-05-07 10:32:00,66.0,0.0,29.92,SSW,211,3.0,8.0,35,-99.99,,,-99.99,,2013-05-07 17:32:00,
2013-05-07 10:40:00,66.0,0.0,29.92,SE,142,3.0,7.0,36,-99.99,,,-99.99,,2013-05-07 17:40:00,
2013-05-07 10:48:00,70.0,0.0,29.92,West,273,9.0,9.0,30,-99.99,,,-99.99,,2013-05-07 17:48:00,
2013-05-07 10:56:00,66.0,0.0,29.92,WNW,285,5.0,9.0,33,-99.99,,,-99.99,,2013-05-07 17:56:00,
2013-05-07 11:04:00,64.0,0.0,29.92,NNE,15,1.0,12.0,38,-99.99,,,-99.99,,2013-05-07 18:04:00,
2013-05-07 11:12:00,66.0,0.0,29.92,NNW,337,6.0,12.0,34,-99.99,,,-99.99,,2013-05-07 18:12:00,
2013-05-07 11:20:00,68.0,0.0,29.92,West,274,5.0,9.0,31,-99.99,,,-99.99,,2013-05-07 18:20:00,
2013-05-07 11:28:00,69.0,0.0,29.92,NNW,332,2.0,7.0,30,-99.99,,,-99.99,,2013-05-07 18:28:00,
2013-05-07 11:36:00,69.0,0.0,29.92,SE,144,2.0,7.0,29,-99.99,,,-99.99,,2013-05-07 18:36:00,
2013-05-07 11:44:00,67.0,0.0,29.92,WSW,258,1.0,8.0,34,-99.99,,,-99.99,,2013-05-07 18:44:00,
2013-05-07 11:52:00,66.0,0.0,29.92,NW,326,25.0,25.0,39,-99.99,,,-99.99,,2013-05-07 18:52:00,
2013-05-07 12:00:00,64.0,0.0,29.92,NW,312,21.0,26.0,40,-99.99,,,-99.99,,2013-05-07 19:00:00,
2013-05-07 12:08:00,0.0,0.0,-0.01,North,0,0.0,0.0,0,-99.99,,,-99.99,,2013-05-07 19:08:00,
2013-05-07 12:16:00,63.0,0.0,29.92,NNW,330,12.0,22.0,46,-99.99,,,-99.99,,2013-05-07 19:16:00,
2013-05-07 12:24:00,65.0,0.0,29.92,WNW,288,10.0,22.0,38,-99.99,,,-99.99,,2013-05-07 19:24:00,
2013-05-07 12:32:00,0.0,0.0,-0.01,North,0,0.0,0.0,0,-99.99,,,-99.99,,2013-05-07 19:32:00,
2013-05-07 12:40:00,68.0,0.0,29.91,WNW,285,9.0,10.0,30,-99.99,,,-99.99,,2013-05-07 19:40:00,
2013-05-07 12:48:00,70.0,0.0,29.91,WNW,290,6.0,10.0,32,-99.99,,,-99.99,,2013-05-07 19:48:00,
2013-05-07 12:56:00,0.0,0.0,-0.01,North,0,0.0,0.0,0,-99.99,,,-99.99,,2013-05-07 19:56:00,
2013-05-07 13:04:00,71.0,0.0,29.90,North,361,8.0,12.0,30,-99.99,,,-99.99,,2013-05-07 20:04:00,
2013-05-07 13:12:00,72.0,0.0,29.90,North,361,5.0,10.0,31,-99.99,,,-99.99,,2013-05-07 20:12:00,
2013-05-07 13:20:00,71.0,0.0,29.90,West,264,5.0,10.0,26,-99.99,,,-99.99,,2013-05-07 20:20:00,
2013-05-07 13:28:00,70.0,0.0,29.90,West,281,9.0,10.0,26,-99.99,,,-99.99,,2013-05-07 20:28:00,
2013-05-07 13:36:00,69.0,0.0,29.90,NNW,328,3.0,13.0,28,-99.99,,,-99.99,,2013-05-07 20:36:00,
2013-05-07 13:44:00,69.0,0.0,29.90,WNW,284,7.0,12.0,32,-99.99,,,-99.99,,2013-05-07 20:44:00,
2013-05-07 13:52:00,71.0,0.0,29.89,NW,316,10.0,18.0,28,-99.99,,,-99.99,,2013-05-07 20:52:00,
2013-05-07 14:00:00,71.0,0.0,29.89,WNW,285,14.0,22.0,32,-99.99,,,-99.99,,2013-05-07 21:00:00,
2013-05-07 14:08:00,71.0,0.0,29.89,NNW,327,12.0,22.0,31,-99.99,,,-99.99,,2013-05-07 21:08:00,
2013-05-07 14:16:00,70.0,0.0,29.89,North,11,3.0,20.0,34,-99.99,,,-99.99,,2013-05-07 21:16:00,
2013-05-07 14:24:00,71.0,0.0,29.89,NW,317,12.0,18.0,31,-99.99,,,-99.99,,2013-05-07 21:24:00,
2013-05-07 14:32:00,70.0,0.0,29.89,NW,309,5.0,18.0,32,-99.99,,,-99.99,,2013-05-07 21:32:00,
2013-05-07 14:40:00,70.0,0.0,29.89,North,1,5.0,16.0,31,-99.99,,,-99.99,,2013-05-07 21:40:00,
2013-05-07 14:48:00,71.0,0.0,29.88,North,353,7.0,13.0,30,-99.99,,,-99.99,,2013-05-07 21:48:00,
2013-05-07 14:56:00,72.0,0.0,29.88,WNW,286,10.0,13.0,27,-99.99,,,-99.99,,2013-05-07 21:56:00,
2013-05-07 15:04:00,72.0,0.0,29.88,NW,316,3.0,13.0,30,-99.99,,,-99.99,,2013-05-07 22:04:00,
2013-05-07 15:12:00,73.0,0.0,29.88,NNW,347,10.0,12.0,29,-99.99,,,-99.99,,2013-05-07 22:12:00,
2013-05-07 15:20:00,71.0,0.0,29.87,North,361,3.0,14.0,30,-99.99,,,-99.99,,2013-05-07 22:20:00,
2013-05-07 15:28:00,72.0,0.0,29.87,NNE,15,3.0,12.0,29,-99.99,,,-99.99,,2013-05-07 22:28:00,
2013-05-07 15:36:00,73.0,0.0,29.87,NW,319,3.0,13.0,25,-99.99,,,-99.99,,2013-05-07 22:36:00,
2013-05-07 15:44:00,73.0,0.0,29.87,West,274,7.0,14.0,28,-99.99,,,-99.99,,2013-05-07 22:44:00,
2013-05-07 15:52:00,0.0,0.0,-0.01,North,0,0.0,0.0,0,-99.99,,,-99.99,,2013-05-07 22:52:00,
2013-05-07 16:00:00,71.0,0.0,29.86,WSW,256,9.0,10.0,32,-99.99,,,-99.99,,2013-05-07 23:00:00,
2013-05-07 16:08:00,70.0,0.0,29.86,West,259,5.0,10.0,32,-99.99,,,-99.99,,2013-05-07 23:08:00,
2013-05-07 16:16:00,69.0,0.0,29.86,WSW,256,7.0,9.0,32,-99.99,,,-99.99,,2013-05-07 23:16:00,
2013-05-07 16:24:00,69.0,0.0,29.86,South,182,5.0,8.0,32,-99.99,,,-99.99,,2013-05-07 23:24:00,
2013-05-07 16:32:00,72.0,0.0,29.85,West,261,1.0,7.0,31,-99.99,,,-99.99,,2013-05-07 23:32:00,
2013-05-07 16:40:00,72.0,0.0,29.85,SW,226,6.0,14.0,31,-99.99,,,-99.99,,2013-05-07 23:40:00,
2013-05-07 16:48:00,71.0,0.0,29.85,SW,235,6.0,15.0,33,-99.99,,,-99.99,,2013-05-07 23:48:00,
2013-05-07 16:56:00,71.0,0.0,29.85,WSW,255,8.0,13.0,33,-99.99,,,-99.99,,2013-05-07 23:56:00,
2013-05-07 17:04:00,71.0,0.0,29.86,West,269,7.0,18.0,30,-99.99,,,-99.99,,2013-05-08 00:04:00,
2013-05-07 17:12:00,70.0,0.0,29.86,WSW,254,8.0,17.0,32,-99.99,,,-99.99,,2013-05-08 00:12:00,
2013-05-07 17:20:00,71.0,0.0,29.86,WSW,256,12.0,16.0,30,-99.99,,,-99.99,,2013-05-08 00:20:00,
2013-05-07 17:28:00,71.0,0.0,29.86,West,274,16.0,20.0,33,-99.99,,,-99.99,,2013-05-08 00:28:00,
2013-05-07 17:36:00,71.0,0.0,29.86,WNW,293,15.0,18.0,30,-99.99,,,-99.99,,2013-05-08 00:36:00,
2013-05-07 17:44:00,70.0,0.0,29.86,West,275,9.0,20.0,32,-99.99,,,-99.99,,2013-05-08 00:44:00,
2013-05-07 17:52:00,70.0,0.0,29.86,WNW,298,14.0,20.0,35,-99.99,,,-99.99,,2013-05-08 00:52:00,
2013-05-07 18:00:00,70.0,0.0,29.86,West,262,8.0,17.0,33,-99.99,,,-99.99,,2013-05-08 01:00:00,
2013-05-07 18:08:00,70.0,0.0,29.86,West,268,8.0,17.0,31,-99.99,,,-99.99,,2013-05-08 01:08:00,
2013-05-07 18:16:00,70.0,0.0,29.86,WNW,284,10.0,18.0,33,-99.99,,,-99.99,,2013-05-08 01:16:00,
2013-05-07 18:24:00,69.0,0.0,29.86,WNW,289,9.0,18.0,36,-99.99,,,-99.99,,2013-05-08 01:24:00,
2013-05-07 18:32:00,69.0,0.0,29.86,NW,318,12.0,18.0,33,-99.99,,,-99.99,,2013-05-08 01:32:00,
2013-05-07 18:40:00,40.0,0.0,29.86,WNW,303,13.0,16.0,32,-99.99,,,-99.99,,2013-05-08 01:40:00,
2013-05-07 18:48:00,69.0,0.0,29.86,WNW,287,14.0,16.0,34,-99.99,,,-99.99,,2013-05-08 01:48:00,
2013-05-07 18:56:00,68.0,0.0,29.86,WNW,286,15.0,20.0,36,-99.99,,,-99.99,,2013-05-08 01:56:00,
2013-05-07 19:04:00,39.0,0.0,29.86,WNW,288,13.0,20.0,37,-99.99,,,-99.99,,2013-05-08 02:04:00,
2013-05-07 19:12:00,39.0,0.0,29.87,WNW,289,13.0,20.0,38,-99.99,,,-99.99,,2013-05-08 02:12:00,
2013-05-07 19:20:00,66.0,0.0,29.87,West,261,13.0,18.0,38,-99.99,,,-99.99,,2013-05-08 02:20:00,
2013-05-07 19:28:00,65.0,0.0,29.87,WNW,282,13.0,20.0,37,-99.99,,,-99.99,,2013-05-08 02:28:00,
2013-05-07 19:36:00,64.0,0.0,29.87,West,278,13.0,20.0,41,-99.99,,,-99.99,,2013-05-08 02:36:00,
2013-05-07 19:44:00,64.0,0.0,29.88,West,274,16.0,17.0,43,-99.99,,,-99.99,,2013-05-08 02:44:00,
2013-05-07 19:52:00,64.0,0.0,29.88,West,270,12.0,17.0,41,-99.99,,,-99.99,,2013-05-08 02:52:00,
2013-05-07 20:00:00,63.0,0.0,29.88,WNW,282,10.0,16.0,41,-99.99,,,-99.99,,2013-05-08 03:00:00,
2013-05-07 20:08:00,36.0,0.0,29.88,West,269,9.0,16.0,44,-99.99,,,-99.99,,2013-05-08 03:08:00,
2013-05-07 20:16:00,36.0,0.0,29.88,West,266,8.0,14.0,40,-99.99,,,-99.99,,2013-05-08 03:16:00,
2013-05-07 20:24:00,35.0,0.0,29.88,West,271,8.0,12.0,41,-99.99,,,-99.99,,2013-05-08 03:24:00,
2013-05-07 20:32:00,62.0,0.0,29.88,WNW,289,8.0,13.0,40,-99.99,,,-99.99,,2013-05-08 03:32:00,
2013-05-07 20:40:00,62.0,0.0,29.89,WNW,289,8.0,12.0,40,-99.99,,,-99.99,,2013-05-08 03:40:00,
2013-05-07 20:48:00,35.0,0.0,29.89,WNW,285,10.0,12.0,40,-99.99,,,-99.99,,2013-05-08 03:48:00,
2013-05-07 20:56:00,35.0,0.0,29.89,WNW,297,9.0,14.0,40,-99.99,,,-99.99,,2013-05-08 03:56:00,
2013-05-07 21:04:00,62.0,0.0,29.89,WNW,289,9.0,14.0,43,-99.99,,,-99.99,,2013-05-08 04:04:00,
2013-05-07 21:08:00,62.0,0.0,29.89,West,279,8.0,14.0,45,-99.99,,,-99.99,,2013-05-08 04:08:00,
2013-05-07 21:12:00,62.0,0.0,29.89,WNW,293,9.0,14.0,41,-99.99,,,-99.99,,2013-05-08 04:12:00,
2013-05-07 21:20:00,62.0,0.0,29.89,NW,308,9.0,14.0,41,-99.99,,,-99.99,,2013-05-08 04:20:00,
2013-05-07 21:24:00,62.0,0.0,29.89,WNW,292,7.0,14.0,41,-99.99,,,-99.99,,2013-05-08 04:24:00,
2013-05-07 21:32:00,61.0,0.0,29.90,WNW,288,7.0,13.0,41,-99.99,,,-99.99,,2013-05-08 04:32:00,
2013-05-07 21:40:00,61.0,0.0,29.90,West,269,5.0,9.0,41,-99.99,,,-99.99,,2013-05-08 04:40:00,
2013-05-07 21:48:00,34.0,0.0,29.90,WSW,257,3.0,8.0,43,-99.99,,,-99.99,,2013-05-08 04:48:00,
2013-05-07 21:56:00,60.0,0.0,29.90,West,267,5.0,5.0,44,-99.99,,,-99.99,,2013-05-08 04:56:00,
2013-05-07 22:04:00,59.0,0.0,29.90,ESE,104,2.0,6.0,44,-99.99,,,-99.99,,2013-05-08 05:04:00,
2013-05-07 22:12:00,58.0,0.0,29.91,East,95,5.0,9.0,46,-99.99,,,-99.99,,2013-05-08 05:12:00,
2013-05-07 22:20:00,33.0,0.0,29.91,West,264,2.0,7.0,45,-99.99,,,-99.99,,2013-05-08 05:20:00,
2013-05-07 22:28:00,33.0,0.0,29.91,ENE,72,3.0,9.0,44,-99.99,,,-99.99,,2013-05-08 05:28:00,
2013-05-07 22:36:00,32.0,0.0,29.92,ESE,111,5.0,6.0,46,-99.99,,,-99.99,,2013-05-08 05:36:00,
2013-05-07 22:44:00,32.0,0.0,29.92,SSE,165,6.0,6.0,44,-99.99,,,-99.99,,2013-05-08 05:44:00,
2013-05-07 22:52:00,58.0,0.0,29.92,South,183,6.0,7.0,45,-99.99,,,-99.99,,2013-05-08 05:52:00,
2013-05-07 23:00:00,57.0,0.0,29.92,South,183,3.0,6.0,46,-99.99,,,-99.99,,2013-05-08 06:00:00,
2013-05-07 23:08:00,57.0,0.0,29.92,South,183,5.0,5.0,45,-99.99,,,-99.99,,2013-05-08 06:08:00,
2013-05-07 23:16:00,56.0,0.0,29.92,South,184,6.0,8.0,46,-99.99,,,-99.99,,2013-05-08 06:16:00,
2013-05-07 23:24:00,57.0,0.0,29.92,South,191,5.0,8.0,46,-99.99,,,-99.99,,2013-05-08 06:24:00,
2013-05-07 23:32:00,56.0,0.0,29.92,South,179,6.0,7.0,46,-99.99,,,-99.99,,2013-05-08 06:32:00,
2013-05-07 23:40:00,55.0,0.0,29.92,SSE,166,6.0,7.0,48,-99.99,,,-99.99,,2013-05-08 06:40:00,
2013-05-07 23:48:00,55.0,0.0,29.92,South,174,6.0,7.0,48,-99.99,,,-99.99,,2013-05-08 06:48:00,
2013-05-07 23:56:00,55.0,0.0,29.93,South,178,6.0,7.0,51,-99.99,,,-99.99,,2013-05-08 06:56:00,